UZB729 UWKD-UZTT

Flight info

Callsign UZB729
Flight time 2h 58m
Altitude 35000
Route INTAR1G INTAR T788 BENAP L991 MULTA M875 ODILA M199 INKUM L163 MIKNO MIKNO2T
Aircraft A320/M-SDE3FGHIRWY/LB1

Departure

Time 2026-04-14 11:43
Airport Kazan International Airport (UWKD)

Arrival

Time 2026-04-14 14:41
Airport Tashkent International Airport (UZTT)
Time Latitude Longitude Altitude Speed Heading
2026-04-14 11:04 55.60696 49.30021 411 ft 0 kts 34°
2026-04-14 11:31 55.60688 49.30011 406 ft 4 kts 38°
2026-04-14 11:32 55.60668 49.29981 415 ft 4 kts 32°
2026-04-14 11:32 55.60646 49.29969 412 ft 4 kts 358°
2026-04-14 11:32 55.60622 49.29981 408 ft 4 kts 319°
2026-04-14 11:32 55.60608 49.30007 405 ft 0 kts 304°
2026-04-14 11:35 55.60610 49.30001 414 ft 0 kts 304°
2026-04-14 11:35 55.60625 49.29964 405 ft 6 kts 304°
2026-04-14 11:35 55.60651 49.29897 409 ft 6 kts 304°
2026-04-14 11:36 55.60677 49.29830 411 ft 6 kts 304°
2026-04-14 11:36 55.60709 49.29748 408 ft 10 kts 304°
2026-04-14 11:36 55.60755 49.29628 413 ft 13 kts 304°
2026-04-14 11:36 55.60805 49.29498 415 ft 11 kts 304°
2026-04-14 11:37 55.60788 49.29397 415 ft 12 kts 215°
2026-04-14 11:37 55.60711 49.29302 415 ft 15 kts 213°
2026-04-14 11:37 55.60615 49.29185 415 ft 18 kts 217°
2026-04-14 11:37 55.60576 49.29001 415 ft 17 kts 275°
2026-04-14 11:38 55.60588 49.28769 412 ft 21 kts 273°
2026-04-14 11:38 55.60619 49.28545 409 ft 20 kts 303°
2026-04-14 11:38 55.60704 49.28327 416 ft 23 kts 304°
2026-04-14 11:38 55.60802 49.28073 414 ft 27 kts 304°
2026-04-14 11:39 55.60913 49.27788 412 ft 30 kts 304°
2026-04-14 11:39 55.61034 49.27476 414 ft 33 kts 304°
2026-04-14 11:39 55.61165 49.27139 410 ft 33 kts 304°
2026-04-14 11:39 55.61297 49.26800 411 ft 33 kts 304°
2026-04-14 11:40 55.61429 49.26459 412 ft 34 kts 304°
2026-04-14 11:40 55.61562 49.26117 414 ft 34 kts 304°
2026-04-14 11:40 55.61690 49.25787 412 ft 32 kts 304°
2026-04-14 11:40 55.61797 49.25509 415 ft 27 kts 304°
2026-04-14 11:41 55.61851 49.25317 415 ft 14 kts 259°
2026-04-14 11:41 55.61779 49.25202 409 ft 16 kts 214°
2026-04-14 11:41 55.61686 49.25159 410 ft 13 kts 152°
2026-04-14 11:41 55.61652 49.25227 411 ft 0 kts 123°
2026-04-14 11:42 55.61600 49.25365 410 ft 45 kts 124°
2026-04-14 11:42 55.61292 49.26159 407 ft 109 kts 124°
2026-04-14 11:42 55.60764 49.27529 420 ft 158 kts 124°
2026-04-14 11:42 55.60099 49.29211 854 ft 164 kts 119°
2026-04-14 11:43 55.59454 49.30861 1575 ft 164 kts 118°
2026-04-14 11:43 55.58780 49.32609 2047 ft 182 kts 118°
2026-04-14 11:43 55.58026 49.34575 2344 ft 203 kts 120°
2026-04-14 11:43 55.57190 49.36743 2713 ft 224 kts 122°
2026-04-14 11:44 55.56267 49.39118 3170 ft 242 kts 123°
2026-04-14 11:44 55.55271 49.41556 3930 ft 247 kts 128°
2026-04-14 11:44 55.54139 49.43880 4721 ft 252 kts 133°
2026-04-14 11:44 55.52893 49.46058 5577 ft 253 kts 136°
2026-04-14 11:45 55.51597 49.48192 6399 ft 256 kts 137°
2026-04-14 11:45 55.50278 49.50352 6951 ft 261 kts 136°
2026-04-14 11:45 55.48954 49.52542 7097 ft 262 kts 136°
2026-04-14 11:45 55.47636 49.54750 7128 ft 261 kts 135°
2026-04-14 11:46 55.46337 49.56951 7129 ft 263 kts 135°
2026-04-14 11:46 55.45031 49.59181 7129 ft 261 kts 135°
2026-04-14 11:46 55.43728 49.61409 7132 ft 260 kts 135°
2026-04-14 11:46 55.42429 49.63628 7130 ft 260 kts 135°
2026-04-14 11:47 55.41130 49.65849 7127 ft 261 kts 135°
2026-04-14 11:47 55.39829 49.68077 7128 ft 261 kts 135°
2026-04-14 11:47 55.38527 49.70310 7128 ft 262 kts 135°
2026-04-14 11:47 55.37226 49.72534 7126 ft 261 kts 135°
2026-04-14 11:48 55.35922 49.74757 7132 ft 260 kts 135°
2026-04-14 11:48 55.34626 49.76963 7131 ft 260 kts 135°
2026-04-14 11:48 55.33322 49.79184 7123 ft 260 kts 135°
2026-04-14 11:48 55.32019 49.81402 7124 ft 262 kts 135°
2026-04-14 11:49 55.30712 49.83630 7130 ft 262 kts 134°
2026-04-14 11:49 55.29597 49.86078 7133 ft 262 kts 120°
2026-04-14 11:49 55.28830 49.89056 7772 ft 264 kts 114°
2026-04-14 11:49 55.28113 49.91990 8555 ft 266 kts 114°
2026-04-14 11:50 55.27360 49.94992 9258 ft 271 kts 114°
2026-04-14 11:50 55.26596 49.98023 10048 ft 273 kts 114°
2026-04-14 11:50 55.25815 50.01128 10440 ft 289 kts 114°
2026-04-14 11:51 55.24070 50.08070 10762 ft 332 kts 114°
2026-04-14 11:51 55.23125 50.11829 11236 ft 340 kts 113°
2026-04-14 11:51 55.22172 50.15636 11936 ft 342 kts 114°
2026-04-14 11:51 55.21206 50.19500 12511 ft 348 kts 114°
2026-04-14 11:52 55.20222 50.23417 13093 ft 353 kts 114°
2026-04-14 11:52 55.19240 50.27305 13747 ft 356 kts 114°
2026-04-14 11:52 55.18234 50.31283 14355 ft 359 kts 114°
2026-04-14 11:52 55.17216 50.35299 14887 ft 364 kts 114°
2026-04-14 11:53 55.16183 50.39367 15470 ft 367 kts 114°
2026-04-14 11:53 55.15144 50.43458 16065 ft 369 kts 114°
2026-04-14 11:53 55.14094 50.47588 16574 ft 374 kts 114°
2026-04-14 11:53 55.13029 50.51765 17042 ft 378 kts 114°
2026-04-14 11:54 55.11955 50.55979 17594 ft 381 kts 114°
2026-04-14 11:54 55.10871 50.60223 18126 ft 385 kts 114°
2026-04-14 11:54 55.09772 50.64508 18583 ft 389 kts 114°
2026-04-14 11:54 55.08658 50.68835 19048 ft 392 kts 114°
2026-04-14 11:55 55.07538 50.73178 19541 ft 394 kts 114°
2026-04-14 11:55 55.06407 50.77559 19975 ft 398 kts 114°
2026-04-14 11:55 55.05185 50.81901 20428 ft 400 kts 120°
2026-04-14 11:55 55.03578 50.85874 20885 ft 402 kts 130°
2026-04-14 11:56 55.01657 50.89445 21293 ft 405 kts 134°
2026-04-14 11:56 54.99695 50.92995 21706 ft 409 kts 134°
2026-04-14 11:56 54.97718 50.96568 22127 ft 411 kts 134°
2026-04-14 11:56 54.95730 51.00158 22562 ft 412 kts 134°
2026-04-14 11:57 54.93734 51.03764 22943 ft 415 kts 134°
2026-04-14 11:57 54.91718 51.07399 23316 ft 418 kts 134°
2026-04-14 11:57 54.89693 51.11042 23697 ft 421 kts 135°
2026-04-14 11:57 54.87653 51.14706 24016 ft 422 kts 135°
2026-04-14 11:58 54.85608 51.18376 24344 ft 424 kts 135°
2026-04-14 11:58 54.83583 51.22010 24641 ft 426 kts 135°
2026-04-14 11:58 54.81513 51.25718 24935 ft 428 kts 136°
2026-04-14 11:58 54.79439 51.29423 25272 ft 428 kts 135°
2026-04-14 11:59 54.77359 51.33130 25581 ft 430 kts 135°
2026-04-14 11:59 54.75268 51.36856 25858 ft 432 kts 135°
2026-04-14 11:59 54.73168 51.40589 26128 ft 434 kts 136°
2026-04-14 11:59 54.71056 51.44333 26420 ft 435 kts 136°
2026-04-14 12:00 54.68935 51.48091 26692 ft 437 kts 136°
2026-04-14 12:00 54.66807 51.51861 26963 ft 439 kts 136°
2026-04-14 12:00 54.64669 51.55641 27228 ft 440 kts 136°
2026-04-14 12:00 54.62528 51.59424 27489 ft 442 kts 136°
2026-04-14 12:01 54.60378 51.63219 27744 ft 443 kts 136°
2026-04-14 12:01 54.58217 51.67028 27990 ft 445 kts 136°
2026-04-14 12:01 54.56048 51.70840 28228 ft 446 kts 136°
2026-04-14 12:01 54.53869 51.74654 28457 ft 447 kts 136°
2026-04-14 12:02 54.51684 51.78472 28669 ft 449 kts 136°
2026-04-14 12:02 54.49489 51.82308 28871 ft 450 kts 136°
2026-04-14 12:02 54.47289 51.86146 29069 ft 451 kts 136°
2026-04-14 12:02 54.45083 51.89985 29338 ft 451 kts 136°
2026-04-14 12:03 54.42910 51.93762 29623 ft 450 kts 136°
2026-04-14 12:03 54.40714 51.97578 29926 ft 449 kts 136°
2026-04-14 12:03 54.38520 52.01388 30209 ft 448 kts 136°
2026-04-14 12:03 54.36332 52.05177 30458 ft 447 kts 137°
2026-04-14 12:04 54.34148 52.08957 30693 ft 446 kts 137°
2026-04-14 12:04 54.31963 52.12730 30923 ft 445 kts 137°
2026-04-14 12:04 54.29783 52.16490 31167 ft 444 kts 137°
2026-04-14 12:04 54.27605 52.20237 31406 ft 444 kts 137°
2026-04-14 12:05 54.25428 52.23968 31644 ft 443 kts 137°
2026-04-14 12:05 54.23252 52.27692 31890 ft 442 kts 137°
2026-04-14 12:05 54.21083 52.31400 32123 ft 441 kts 137°
2026-04-14 12:05 54.18916 52.35104 32372 ft 440 kts 137°
2026-04-14 12:06 54.16752 52.38798 32606 ft 440 kts 137°
2026-04-14 12:06 54.14592 52.42488 32839 ft 439 kts 137°
2026-04-14 12:06 54.12433 52.46174 33078 ft 438 kts 137°
2026-04-14 12:06 54.10281 52.49838 33334 ft 437 kts 137°
2026-04-14 12:07 54.08161 52.53435 33574 ft 435 kts 138°
2026-04-14 12:07 54.06013 52.57068 33813 ft 434 kts 138°
2026-04-14 12:07 54.03868 52.60691 34056 ft 434 kts 138°
2026-04-14 12:07 54.01728 52.64297 34250 ft 433 kts 138°
2026-04-14 12:08 53.99588 52.67897 34443 ft 433 kts 138°
2026-04-14 12:08 53.97451 52.71491 34625 ft 432 kts 138°
2026-04-14 12:08 53.95311 52.75084 34805 ft 432 kts 138°
2026-04-14 12:08 53.93171 52.78667 34975 ft 432 kts 137°
2026-04-14 12:09 53.91031 52.82248 35080 ft 433 kts 137°
2026-04-14 12:09 53.88881 52.85844 35096 ft 434 kts 137°
2026-04-14 12:09 53.84587 52.93016 35095 ft 434 kts 137°
2026-04-14 12:10 53.80312 53.00230 35094 ft 434 kts 136°
2026-04-14 12:10 53.76160 53.07667 35095 ft 435 kts 135°
2026-04-14 12:11 53.72066 53.15098 35090 ft 435 kts 135°
2026-04-14 12:11 53.67914 53.22508 35090 ft 435 kts 136°
2026-04-14 12:12 53.63738 53.29882 35086 ft 435 kts 136°
2026-04-14 12:12 53.59553 53.37241 35080 ft 436 kts 136°
2026-04-14 12:13 53.55356 53.44615 35078 ft 437 kts 136°
2026-04-14 12:13 53.51147 53.51982 35076 ft 437 kts 136°
2026-04-14 12:14 53.46926 53.59331 35075 ft 437 kts 136°
2026-04-14 12:14 53.42702 53.66678 35076 ft 437 kts 136°
2026-04-14 12:15 53.38475 53.74007 35080 ft 438 kts 136°
2026-04-14 12:15 53.34237 53.81338 35076 ft 438 kts 136°
2026-04-14 12:16 53.29992 53.88676 35078 ft 438 kts 136°
2026-04-14 12:16 53.25778 53.95944 35077 ft 438 kts 136°
2026-04-14 12:17 53.21530 54.03252 35081 ft 439 kts 136°
2026-04-14 12:17 53.17267 54.10548 35077 ft 438 kts 136°
2026-04-14 12:18 53.13006 54.17825 35068 ft 438 kts 136°
2026-04-14 12:18 53.08741 54.25086 35071 ft 438 kts 136°
2026-04-14 12:19 53.04482 54.32331 35070 ft 438 kts 136°
2026-04-14 12:19 53.00216 54.39548 35070 ft 438 kts 136°
2026-04-14 12:20 52.95941 54.46749 35058 ft 438 kts 136°
2026-04-14 12:20 52.91691 54.53890 35060 ft 438 kts 137°
2026-04-14 12:21 52.87400 54.61064 35055 ft 438 kts 137°
2026-04-14 12:21 52.83110 54.68213 35054 ft 438 kts 137°
2026-04-14 12:22 52.78818 54.75353 35043 ft 438 kts 137°
2026-04-14 12:22 52.75215 54.81319 35043 ft 438 kts 137°
2026-04-14 12:23 52.70941 54.88384 35044 ft 438 kts 137°
2026-04-14 12:23 52.66641 54.95481 35042 ft 438 kts 137°
2026-04-14 12:24 52.62332 55.02569 35045 ft 438 kts 137°
2026-04-14 12:24 52.58020 55.09641 35040 ft 438 kts 137°
2026-04-14 12:25 52.53703 55.16693 35049 ft 438 kts 137°
2026-04-14 12:25 52.49382 55.23731 35041 ft 438 kts 137°
2026-04-14 12:26 52.45057 55.30764 35039 ft 438 kts 137°
2026-04-14 12:26 52.40759 55.37736 35036 ft 437 kts 137°
2026-04-14 12:27 52.36426 55.44736 35031 ft 437 kts 137°
2026-04-14 12:27 52.32093 55.51713 35027 ft 437 kts 137°
2026-04-14 12:28 52.27757 55.58684 35036 ft 437 kts 137°
2026-04-14 12:28 52.23410 55.65648 35040 ft 437 kts 137°
2026-04-14 12:29 52.19062 55.72583 35035 ft 437 kts 138°
2026-04-14 12:29 52.14715 55.79499 35040 ft 437 kts 138°
2026-04-14 12:30 52.10366 55.86415 35040 ft 437 kts 138°
2026-04-14 12:30 52.06044 55.93263 35041 ft 437 kts 138°
2026-04-14 12:31 52.01692 56.00135 35036 ft 436 kts 138°
2026-04-14 12:31 51.97333 56.06993 35035 ft 436 kts 138°
2026-04-14 12:32 51.92973 56.13830 35040 ft 436 kts 138°
2026-04-14 12:32 51.88612 56.20648 35044 ft 435 kts 138°
2026-04-14 12:33 51.84258 56.27456 35042 ft 435 kts 138°
2026-04-14 12:33 51.79899 56.34253 35041 ft 435 kts 138°
2026-04-14 12:34 51.75536 56.41011 35044 ft 435 kts 138°
2026-04-14 12:34 51.71169 56.47766 35044 ft 435 kts 138°
2026-04-14 12:35 51.66803 56.54517 35044 ft 435 kts 139°
2026-04-14 12:35 51.61902 56.60046 35037 ft 429 kts 156°
2026-04-14 12:36 51.56298 56.63023 35032 ft 427 kts 166°
2026-04-14 12:36 51.50566 56.65576 35035 ft 428 kts 166°
2026-04-14 12:37 51.44833 56.68142 35028 ft 428 kts 166°
2026-04-14 12:37 51.39090 56.70699 35025 ft 428 kts 166°
2026-04-14 12:38 51.30509 56.74496 35024 ft 428 kts 166°
2026-04-14 12:39 51.24767 56.77037 35024 ft 428 kts 166°
2026-04-14 12:39 51.19027 56.79576 35027 ft 428 kts 165°
2026-04-14 12:40 51.13300 56.82099 35026 ft 427 kts 165°
2026-04-14 12:40 51.07597 56.84763 35024 ft 427 kts 159°
2026-04-14 12:41 51.02214 56.88802 35026 ft 428 kts 155°
2026-04-14 12:41 50.96852 56.92907 35019 ft 428 kts 156°
2026-04-14 12:42 50.91483 56.96991 35011 ft 428 kts 156°
2026-04-14 12:42 50.86152 57.01039 35014 ft 427 kts 156°
2026-04-14 12:43 50.80787 57.05097 35016 ft 427 kts 156°
2026-04-14 12:43 50.75422 57.09137 35013 ft 427 kts 156°
2026-04-14 12:44 50.70065 57.13181 35011 ft 427 kts 156°
2026-04-14 12:44 50.64705 57.17216 35016 ft 426 kts 156°
2026-04-14 12:45 50.56666 57.23244 35019 ft 426 kts 156°
2026-04-14 12:45 50.51347 57.27222 35013 ft 426 kts 156°
2026-04-14 12:46 50.45992 57.31209 35014 ft 426 kts 156°
2026-04-14 12:46 50.40638 57.35184 35016 ft 426 kts 156°
2026-04-14 12:47 50.35277 57.39154 35014 ft 426 kts 156°
2026-04-14 12:47 50.29920 57.43118 35026 ft 425 kts 156°
2026-04-14 12:48 50.24577 57.47067 35019 ft 424 kts 156°
2026-04-14 12:48 50.19239 57.51000 35017 ft 424 kts 156°
2026-04-14 12:49 50.13894 57.54913 35009 ft 424 kts 156°
2026-04-14 12:49 50.08594 57.58798 35005 ft 424 kts 156°
2026-04-14 12:50 50.00590 57.64648 34997 ft 424 kts 156°
2026-04-14 12:51 49.95247 57.68537 34994 ft 424 kts 156°
2026-04-14 12:51 49.89904 57.72416 34991 ft 424 kts 156°
2026-04-14 12:52 49.84562 57.76284 34989 ft 424 kts 156°
2026-04-14 12:52 49.79252 57.80110 34990 ft 424 kts 156°
2026-04-14 12:53 49.73904 57.83969 34988 ft 424 kts 156°
2026-04-14 12:53 49.68938 57.88873 34987 ft 426 kts 143°
2026-04-14 12:54 49.64277 57.94522 34981 ft 426 kts 144°
2026-04-14 12:54 49.59608 58.00146 34983 ft 426 kts 144°
2026-04-14 12:55 49.54937 58.05748 34985 ft 426 kts 144°
2026-04-14 12:55 49.50290 58.11315 34983 ft 425 kts 144°
2026-04-14 12:56 49.45626 58.16907 34979 ft 425 kts 144°
2026-04-14 12:56 49.40954 58.22489 34980 ft 425 kts 144°
2026-04-14 12:57 49.36275 58.28041 34981 ft 425 kts 144°
2026-04-14 12:57 49.31595 58.33589 34981 ft 425 kts 144°
2026-04-14 12:58 49.26913 58.39140 34979 ft 425 kts 144°
2026-04-14 12:58 49.22232 58.44683 34974 ft 425 kts 144°
2026-04-14 12:59 49.17549 58.50201 34978 ft 425 kts 144°
2026-04-14 12:59 49.12866 58.55711 34978 ft 425 kts 144°
2026-04-14 13:00 49.08178 58.61210 34978 ft 425 kts 144°
2026-04-14 13:00 49.03491 58.66691 34977 ft 425 kts 144°
2026-04-14 13:01 48.98824 58.72128 34979 ft 424 kts 144°
2026-04-14 13:01 48.97239 58.73970 34979 ft 424 kts 144°
2026-04-14 13:03 48.83758 58.89631 34975 ft 424 kts 144°
2026-04-14 13:03 48.79070 58.95057 34975 ft 424 kts 144°
2026-04-14 13:04 48.74376 59.00466 34978 ft 424 kts 144°
2026-04-14 13:04 48.69678 59.05854 34973 ft 424 kts 144°
2026-04-14 13:05 48.64984 59.11240 34968 ft 423 kts 144°
2026-04-14 13:05 48.60287 59.16614 34968 ft 423 kts 145°
2026-04-14 13:06 48.56375 59.21081 34971 ft 423 kts 144°
2026-04-14 13:06 48.51676 59.26434 34961 ft 423 kts 145°
2026-04-14 13:07 48.46972 59.31776 34962 ft 423 kts 145°
2026-04-14 13:07 48.42263 59.37108 34964 ft 423 kts 145°
2026-04-14 13:08 48.37558 59.42433 34966 ft 423 kts 145°
2026-04-14 13:08 48.32879 59.47713 34962 ft 423 kts 145°
2026-04-14 13:09 48.28179 59.53006 34965 ft 422 kts 145°
2026-04-14 13:09 48.23474 59.58290 34965 ft 422 kts 145°
2026-04-14 13:10 48.18768 59.63554 34959 ft 422 kts 145°
2026-04-14 13:10 48.14059 59.68809 34957 ft 422 kts 145°
2026-04-14 13:11 48.09352 59.74055 34954 ft 422 kts 145°
2026-04-14 13:11 48.04650 59.79297 34955 ft 421 kts 145°
2026-04-14 13:12 47.99945 59.84517 34958 ft 421 kts 145°
2026-04-14 13:12 47.95235 59.89723 34952 ft 421 kts 145°
2026-04-14 13:13 47.90563 59.94894 34955 ft 421 kts 145°
2026-04-14 13:13 47.85863 60.00080 34956 ft 420 kts 145°
2026-04-14 13:14 47.81154 60.05251 34954 ft 420 kts 145°
2026-04-14 13:14 47.76447 60.10413 34948 ft 420 kts 145°
2026-04-14 13:15 47.71740 60.15576 34946 ft 420 kts 145°
2026-04-14 13:15 47.67053 60.20685 34952 ft 421 kts 145°
2026-04-14 13:16 47.62331 60.25813 34953 ft 421 kts 145°
2026-04-14 13:16 47.57602 60.30947 34956 ft 421 kts 145°
2026-04-14 13:17 47.52873 60.36075 34955 ft 421 kts 145°
2026-04-14 13:17 47.48146 60.41197 34955 ft 421 kts 145°
2026-04-14 13:18 47.43417 60.46310 34951 ft 421 kts 145°
2026-04-14 13:18 47.38687 60.51410 34948 ft 421 kts 146°
2026-04-14 13:19 47.33948 60.56501 34950 ft 421 kts 145°
2026-04-14 13:19 47.29245 60.61546 34950 ft 421 kts 146°
2026-04-14 13:20 47.24504 60.66625 34955 ft 421 kts 146°
2026-04-14 13:20 47.19760 60.71688 34951 ft 421 kts 146°
2026-04-14 13:21 47.15005 60.76747 34956 ft 422 kts 146°
2026-04-14 13:21 47.10254 60.81791 34953 ft 422 kts 146°
2026-04-14 13:22 47.05497 60.86831 34953 ft 422 kts 146°
2026-04-14 13:22 47.00741 60.91869 34944 ft 422 kts 146°
2026-04-14 13:23 46.95983 60.96894 34945 ft 422 kts 146°
2026-04-14 13:23 46.91217 61.01911 34946 ft 422 kts 146°
2026-04-14 13:24 46.86450 61.06914 34943 ft 422 kts 146°
2026-04-14 13:24 46.79338 61.14373 34943 ft 421 kts 146°
2026-04-14 13:25 46.74572 61.19356 34949 ft 421 kts 146°
2026-04-14 13:26 46.65035 61.29290 34930 ft 421 kts 146°
2026-04-14 13:26 46.60262 61.34238 34929 ft 421 kts 146°
2026-04-14 13:27 46.55493 61.39178 34925 ft 421 kts 146°
2026-04-14 13:27 46.50720 61.44110 34923 ft 421 kts 146°
2026-04-14 13:28 46.45947 61.49035 34921 ft 420 kts 146°
2026-04-14 13:28 46.41179 61.53952 34917 ft 420 kts 146°
2026-04-14 13:29 46.36439 61.58822 34914 ft 420 kts 146°
2026-04-14 13:29 46.31670 61.63715 34907 ft 420 kts 146°
2026-04-14 13:30 46.26892 61.68597 34911 ft 420 kts 146°
2026-04-14 13:30 46.22108 61.73469 34910 ft 421 kts 146°
2026-04-14 13:31 46.17325 61.78332 34915 ft 420 kts 146°
2026-04-14 13:31 46.12537 61.83177 34911 ft 420 kts 146°
2026-04-14 13:32 46.07744 61.88016 34910 ft 420 kts 146°
2026-04-14 13:32 46.02979 61.92815 34905 ft 420 kts 146°
2026-04-14 13:33 45.98183 61.97634 34906 ft 420 kts 146°
2026-04-14 13:33 45.93386 62.02458 34900 ft 421 kts 146°
2026-04-14 13:34 45.86185 62.09674 34899 ft 421 kts 146°
2026-04-14 13:35 45.81751 62.15157 34898 ft 423 kts 131°
2026-04-14 13:35 45.78056 62.21737 34897 ft 424 kts 131°
2026-04-14 13:36 45.74354 62.28313 34881 ft 424 kts 130°
2026-04-14 13:36 45.70646 62.34892 34889 ft 425 kts 131°
2026-04-14 13:37 45.66929 62.41463 34894 ft 425 kts 131°
2026-04-14 13:37 45.63210 62.48018 34889 ft 424 kts 131°
2026-04-14 13:38 45.59514 62.54526 34891 ft 425 kts 131°
2026-04-14 13:38 45.55785 62.61075 34893 ft 425 kts 131°
2026-04-14 13:39 45.52051 62.67606 34894 ft 425 kts 131°
2026-04-14 13:39 45.48310 62.74142 34898 ft 425 kts 131°
2026-04-14 13:40 45.44568 62.80676 34902 ft 425 kts 131°
2026-04-14 13:40 45.40820 62.87194 34899 ft 425 kts 131°
2026-04-14 13:41 45.37059 62.93698 34899 ft 425 kts 131°
2026-04-14 13:41 45.33330 63.00157 34891 ft 425 kts 131°
2026-04-14 13:42 45.29575 63.06657 34893 ft 425 kts 131°
2026-04-14 13:42 45.25809 63.13142 34893 ft 425 kts 131°
2026-04-14 13:43 45.22043 63.19622 34891 ft 425 kts 131°
2026-04-14 13:43 45.18269 63.26094 34886 ft 426 kts 131°
2026-04-14 13:44 45.14507 63.32538 34872 ft 426 kts 131°
2026-04-14 13:44 45.10716 63.39007 34879 ft 427 kts 131°
2026-04-14 13:45 45.06922 63.45475 34881 ft 427 kts 131°
2026-04-14 13:45 45.03130 63.51936 34873 ft 427 kts 131°
2026-04-14 13:46 44.99321 63.58384 34882 ft 428 kts 131°
2026-04-14 13:46 44.95503 63.64831 34885 ft 428 kts 131°
2026-04-14 13:47 44.91675 63.71288 34885 ft 428 kts 131°
2026-04-14 13:47 44.87870 63.77688 34884 ft 429 kts 131°
2026-04-14 13:48 44.84029 63.84133 34883 ft 429 kts 131°
2026-04-14 13:48 44.80182 63.90577 34882 ft 430 kts 131°
2026-04-14 13:49 44.76333 63.97013 34888 ft 430 kts 131°
2026-04-14 13:49 44.72469 64.03462 34891 ft 430 kts 132°
2026-04-14 13:50 44.68604 64.09898 34891 ft 430 kts 132°
2026-04-14 13:50 44.64767 64.16281 34894 ft 430 kts 132°
2026-04-14 13:51 44.60889 64.22700 34891 ft 430 kts 132°
2026-04-14 13:51 44.57020 64.29098 34883 ft 430 kts 132°
2026-04-14 13:52 44.53141 64.35494 34871 ft 430 kts 132°
2026-04-14 13:52 44.49282 64.41860 34871 ft 431 kts 132°
2026-04-14 13:53 44.45390 64.48253 34872 ft 431 kts 132°
2026-04-14 13:53 44.41492 64.54635 34862 ft 431 kts 132°
2026-04-14 13:54 44.37582 64.61001 34873 ft 431 kts 132°
2026-04-14 13:54 44.33675 64.67367 34863 ft 432 kts 132°
2026-04-14 13:55 44.29796 64.73699 34869 ft 432 kts 132°
2026-04-14 13:55 44.25883 64.80066 34871 ft 432 kts 132°
2026-04-14 13:56 44.21968 64.86425 34867 ft 432 kts 132°
2026-04-14 13:56 44.18041 64.92766 34869 ft 432 kts 132°
2026-04-14 13:57 44.14109 64.99103 34865 ft 432 kts 132°
2026-04-14 13:57 44.10179 65.05425 34868 ft 432 kts 132°
2026-04-14 13:58 44.06907 65.10683 34869 ft 432 kts 133°
2026-04-14 13:58 44.02321 65.18020 34870 ft 433 kts 133°
2026-04-14 13:59 43.98375 65.24340 34861 ft 434 kts 133°
2026-04-14 13:59 43.95057 65.29637 34863 ft 434 kts 133°
2026-04-14 14:00 43.91088 65.35956 34852 ft 435 kts 133°
2026-04-14 14:00 43.87144 65.42235 34860 ft 435 kts 133°
2026-04-14 14:01 43.83164 65.48550 34855 ft 435 kts 133°
2026-04-14 14:01 43.79163 65.54867 34860 ft 436 kts 133°
2026-04-14 14:02 43.75156 65.61181 34863 ft 436 kts 133°
2026-04-14 14:02 43.71144 65.67485 34866 ft 437 kts 133°
2026-04-14 14:03 43.67127 65.73796 34857 ft 438 kts 133°
2026-04-14 14:03 43.63106 65.80112 34860 ft 438 kts 133°
2026-04-14 14:04 43.59097 65.86389 34863 ft 439 kts 133°
2026-04-14 14:04 43.55049 65.92699 34865 ft 439 kts 133°
2026-04-14 14:05 43.50996 65.99009 34873 ft 440 kts 133°
2026-04-14 14:05 43.46933 66.05318 34877 ft 440 kts 133°
2026-04-14 14:06 43.42865 66.11614 34879 ft 440 kts 133°
2026-04-14 14:06 43.38793 66.17914 34871 ft 440 kts 133°
2026-04-14 14:07 43.34724 66.24213 34878 ft 440 kts 133°
2026-04-14 14:07 43.30668 66.30464 34870 ft 441 kts 133°
2026-04-14 14:08 43.26577 66.36741 34866 ft 442 kts 133°
2026-04-14 14:08 43.22471 66.43020 34867 ft 443 kts 133°
2026-04-14 14:09 43.18362 66.49310 34870 ft 443 kts 133°
2026-04-14 14:09 43.14251 66.55609 34874 ft 443 kts 133°
2026-04-14 14:10 43.10130 66.61908 34862 ft 444 kts 133°
2026-04-14 14:10 43.06004 66.68190 34878 ft 444 kts 134°
2026-04-14 14:11 43.01870 66.74455 34878 ft 444 kts 134°
2026-04-14 14:11 42.97731 66.80719 34880 ft 444 kts 134°
2026-04-14 14:12 42.93577 66.86969 34868 ft 445 kts 134°
2026-04-14 14:12 42.89423 66.93228 34877 ft 445 kts 134°
2026-04-14 14:13 42.85288 66.99452 34893 ft 446 kts 134°
2026-04-14 14:13 42.81119 67.05702 34892 ft 446 kts 134°
2026-04-14 14:14 42.76953 67.11949 34894 ft 446 kts 134°
2026-04-14 14:14 42.72772 67.18197 34875 ft 446 kts 134°
2026-04-14 14:15 42.68573 67.24433 34894 ft 447 kts 134°
2026-04-14 14:15 42.64366 67.30675 34888 ft 448 kts 134°
2026-04-14 14:16 42.60148 67.36922 34894 ft 449 kts 134°
2026-04-14 14:16 42.55922 67.43167 34900 ft 449 kts 134°
2026-04-14 14:17 42.45326 67.58840 34894 ft 450 kts 134°
2026-04-14 14:18 42.41086 67.65075 34894 ft 451 kts 134°
2026-04-14 14:18 42.36829 67.71306 34894 ft 451 kts 134°
2026-04-14 14:19 42.32562 67.77546 34902 ft 452 kts 134°
2026-04-14 14:19 42.28298 67.83781 34903 ft 451 kts 134°
2026-04-14 14:20 42.24032 67.90003 34907 ft 451 kts 135°
2026-04-14 14:20 42.19757 67.96215 34901 ft 452 kts 135°
2026-04-14 14:21 42.15511 68.02386 34903 ft 451 kts 135°
2026-04-14 14:21 42.11232 68.08589 34903 ft 451 kts 135°
2026-04-14 14:22 42.06948 68.14782 34897 ft 452 kts 135°
2026-04-14 14:22 42.02476 68.20713 34745 ft 451 kts 144°
2026-04-14 14:23 41.99904 68.23111 34467 ft 451 kts 148°
2026-04-14 14:23 41.97276 68.25459 33493 ft 456 kts 148°
2026-04-14 14:23 41.94630 68.27823 32541 ft 457 kts 148°
2026-04-14 14:23 41.92008 68.30168 31562 ft 460 kts 148°
2026-04-14 14:24 41.89347 68.32556 30646 ft 461 kts 148°
2026-04-14 14:24 41.86668 68.34961 29482 ft 466 kts 148°
2026-04-14 14:24 41.83984 68.37373 28828 ft 459 kts 148°
2026-04-14 14:24 41.81361 68.39732 28196 ft 451 kts 148°
2026-04-14 14:25 41.78766 68.42062 27537 ft 446 kts 148°
2026-04-14 14:25 41.76200 68.44357 26890 ft 441 kts 148°
2026-04-14 14:25 41.73653 68.46626 26252 ft 437 kts 149°
2026-04-14 14:25 41.71128 68.48866 25622 ft 433 kts 149°
2026-04-14 14:26 41.68625 68.51085 25005 ft 430 kts 149°
2026-04-14 14:26 41.66143 68.53284 24382 ft 426 kts 149°
2026-04-14 14:26 41.63677 68.55472 23771 ft 424 kts 149°
2026-04-14 14:26 41.61229 68.57645 23110 ft 421 kts 148°
2026-04-14 14:27 41.58829 68.59776 22511 ft 417 kts 149°
2026-04-14 14:27 41.56429 68.61907 21962 ft 412 kts 149°
2026-04-14 14:27 41.54048 68.64016 21441 ft 408 kts 149°
2026-04-14 14:27 41.51693 68.66100 20927 ft 404 kts 149°
2026-04-14 14:28 41.49356 68.68165 20427 ft 401 kts 149°
2026-04-14 14:28 41.47041 68.70210 19950 ft 397 kts 149°
2026-04-14 14:28 41.44748 68.72238 19475 ft 394 kts 149°
2026-04-14 14:28 41.42474 68.74246 19020 ft 391 kts 149°
2026-04-14 14:29 41.40212 68.76238 18535 ft 388 kts 149°
2026-04-14 14:29 41.37972 68.78211 18032 ft 385 kts 149°
2026-04-14 14:29 41.35745 68.80173 17528 ft 382 kts 149°
2026-04-14 14:29 41.33536 68.82114 17030 ft 379 kts 149°
2026-04-14 14:30 41.31343 68.84037 16537 ft 376 kts 149°
2026-04-14 14:30 41.29212 68.86045 16042 ft 376 kts 142°
2026-04-14 14:30 41.27362 68.88508 15519 ft 377 kts 132°
2026-04-14 14:30 41.25676 68.91175 14989 ft 376 kts 132°
2026-04-14 14:31 41.23990 68.93834 14459 ft 375 kts 132°
2026-04-14 14:31 41.22327 68.96452 13928 ft 375 kts 132°
2026-04-14 14:31 41.20648 68.99092 13353 ft 374 kts 132°
2026-04-14 14:31 41.18968 69.01726 12805 ft 372 kts 132°
2026-04-14 14:32 41.17303 69.04340 12257 ft 370 kts 132°
2026-04-14 14:32 41.15736 69.07036 11700 ft 369 kts 123°
2026-04-14 14:32 41.14648 69.10120 11118 ft 371 kts 109°
2026-04-14 14:32 41.14151 69.13461 10674 ft 368 kts 95°
2026-04-14 14:33 41.14267 69.16792 10533 ft 355 kts 82°
2026-04-14 14:33 41.14635 69.19961 10407 ft 341 kts 82°
2026-04-14 14:33 41.14981 69.23019 10284 ft 329 kts 82°
2026-04-14 14:33 41.15312 69.25974 10160 ft 318 kts 82°
2026-04-14 14:34 41.15946 69.31680 9617 ft 314 kts 82°
2026-04-14 14:34 41.16263 69.34559 9223 ft 312 kts 82°
2026-04-14 14:34 41.16576 69.37373 8701 ft 305 kts 82°
2026-04-14 14:35 41.16882 69.40102 8121 ft 300 kts 83°
2026-04-14 14:35 41.17187 69.42825 7508 ft 296 kts 83°
2026-04-14 14:35 41.17483 69.45497 6908 ft 290 kts 83°
2026-04-14 14:35 41.17777 69.48126 6292 ft 285 kts 82°
2026-04-14 14:36 41.18464 69.50552 5662 ft 282 kts 54°
2026-04-14 14:36 41.19928 69.52177 5249 ft 270 kts 24°
2026-04-14 14:36 41.21683 69.52661 5074 ft 250 kts 357°
2026-04-14 14:36 41.23345 69.52426 4942 ft 231 kts 353°
2026-04-14 14:37 41.24888 69.52172 4831 ft 218 kts 353°
2026-04-14 14:37 41.26328 69.51900 4752 ft 197 kts 345°
2026-04-14 14:37 41.27462 69.51038 4631 ft 188 kts 311°
2026-04-14 14:37 41.28064 69.49536 4415 ft 186 kts 278°
2026-04-14 14:38 41.27990 69.47850 4051 ft 182 kts 261°
2026-04-14 14:38 41.27813 69.46213 3779 ft 174 kts 261°
2026-04-14 14:38 41.27647 69.44672 3590 ft 162 kts 261°
2026-04-14 14:38 41.27481 69.43217 3407 ft 157 kts 261°
2026-04-14 14:39 41.27307 69.41795 3106 ft 155 kts 262°
2026-04-14 14:39 41.27153 69.40387 2864 ft 153 kts 262°
2026-04-14 14:39 41.27017 69.39012 2677 ft 152 kts 263°
2026-04-14 14:39 41.26886 69.37627 2505 ft 150 kts 263°
2026-04-14 14:40 41.26733 69.36256 2279 ft 149 kts 261°
2026-04-14 14:40 41.26575 69.34905 2086 ft 146 kts 262°
2026-04-14 14:40 41.26442 69.33566 1884 ft 144 kts 263°
2026-04-14 14:40 41.26300 69.32253 1729 ft 143 kts 262°
2026-04-14 14:41 41.26161 69.30944 1557 ft 143 kts 261°
2026-04-14 14:41 41.26015 69.29647 1408 ft 142 kts 261°
2026-04-14 14:41 41.25885 69.28463 1381 ft 110 kts 262°
2026-04-14 14:41 41.25799 69.27717 1384 ft 44 kts 261°
2026-04-14 14:42 41.25833 69.27509 1380 ft 16 kts 317°
2026-04-14 14:42 41.25893 69.27437 1381 ft 11 kts 319°
2026-04-14 14:42 41.25905 69.27422 1381 ft 1 kts 319°
2026-04-14 14:42 41.25932 69.27391 1379 ft 10 kts 319°
2026-04-14 14:43 41.25981 69.27334 1381 ft 9 kts 319°
2026-04-14 14:43 41.26026 69.27284 1379 ft 8 kts 320°
2026-04-14 14:43 41.26063 69.27242 1379 ft 6 kts 320°
2026-04-14 14:43 41.26098 69.27202 1380 ft 10 kts 318°
2026-04-14 14:44 41.26154 69.27134 1382 ft 11 kts 317°
2026-04-14 14:44 41.26202 69.27078 1382 ft 7 kts 315°
2026-04-14 14:44 41.26217 69.27025 1382 ft 5 kts 279°
2026-04-14 14:44 41.26218 69.26983 1380 ft 4 kts 271°
2026-04-14 14:45 41.26219 69.26954 1380 ft 2 kts 271°
2026-04-14 14:45 41.26219 69.26940 1381 ft 0 kts 271°